EW0822 Weather Reports


time (UTC)temp
C
wind
direction
speed
KPH
gust
KPH
rain 1hr
cm
rain 24hr
cm
rain mn
cm
humidity
%
barometer
mb
20260507180037 13 342 0.0 0.0 0.00 0.00 0.00 66 1015.3
20260507174539 14 342 0.0 0.0 0.00 0.00 0.00 65 1015.2
20260507173036 14 342 0.0 0.0 0.00 0.00 0.00 63 1015.2
20260507171534 14 342 0.0 0.0 0.00 0.00 0.00 61 1015.1
20260507170035 14 296 0.0 0.0 0.00 0.00 0.00 61 1015.1
20260507164537 15 245 0.0 0.0 0.00 0.00 0.00 61 1015.0
20260507163033 15 228 0.0 0.0 0.00 0.00 0.00 60 1015.0
20260507161531 15 219 0.0 0.0 0.00 0.00 0.00 59 1015.0
20260507160030 15 214 0.0 0.0 0.00 0.00 0.00 57 1014.9
20260507154532 15 202 0.0 0.0 0.00 0.00 0.00 56 1014.8
20260507153028 15 355 0.0 0.0 0.00 0.00 0.00 59 1014.8
20260507151530 15 24 0.0 6.4 0.00 0.00 0.00 58 1014.7
20260507150031 15 305 0.0 0.0 0.00 0.00 0.00 58 1014.5
20260507144529 15 174 0.0 0.0 0.00 0.00 0.00 56 1014.5
20260507143025 15 231 0.0 0.0 0.00 0.00 0.00 55 1014.6
20260507141525 16 253 0.0 0.0 0.00 0.00 0.00 55 1014.6
20260507140024 15 186 0.0 0.0 0.00 0.00 0.00 55 1014.6
20260507134524 15 246 0.0 0.0 0.00 0.00 0.00 54 1014.7
20260507133024 15 198 0.0 0.0 0.00 0.00 0.00 56 1014.7
20260507131522 15 201 0.0 0.0 0.00 0.00 0.00 55 1014.7
20260507130022 15 190 0.0 1.6 0.00 0.00 0.00 53 1014.7
20260507124524 15 188 0.0 1.6 0.00 0.00 0.00 55 1014.6
20260507123019 15 273 0.0 0.0 0.00 0.00 0.00 56 1014.5
20260507121515 15 292 0.0 1.6 0.00 0.00 0.00 58 1014.5
20260507120013 15 286 0.0 0.0 0.00 0.00 0.00 58 1014.5
20260507114512 15 215 0.0 0.0 0.00 0.00 0.00 59 1014.6
20260507113009 15 272 0.0 0.0 0.00 0.00 0.00 60 1014.5
20260507111510 14 186 0.0 0.0 0.00 0.00 0.00 61 1014.6
20260507110005 14 234 0.0 0.0 0.00 0.00 0.00 64 1014.6
20260507104502 13 213 0.0 6.4 0.00 0.00 0.00 65 1014.8
20260507103059 13 214 0.0 0.0 0.00 0.00 0.00 68 1014.7
20260507101557 13 184 0.0 0.0 0.00 0.00 0.00 68 1014.7
20260507100057 13 201 0.0 0.0 0.00 0.00 0.00 71 1014.6
20260507094555 13 248 0.0 3.2 0.00 0.00 0.00 71 1014.5
20260507093051 13 198 0.0 0.0 0.00 0.00 0.00 72 1014.5
20260507091548 12 267 0.0 3.2 0.00 0.00 0.00 74 1014.4
20260507090046 12 202 0.0 0.0 0.00 0.00 0.00 76 1014.4
20260507084544 12 187 0.0 0.0 0.00 0.00 0.00 78 1014.4
20260507083047 11 188 0.0 0.0 0.00 0.00 0.00 79 1014.3
20260507081536 11 212 0.0 0.0 0.00 0.00 0.00 80 1014.3
20260507080033 11 215 0.0 0.0 0.00 0.00 0.00 80 1014.3
20260507074531 10 199 0.0 1.6 0.00 0.00 0.00 80 1014.1
20260507073028 10 214 0.0 0.0 0.00 0.00 0.00 80 1014.0
20260507071526 10 221 0.0 3.2 0.00 0.00 0.00 79 1013.9
20260507070024 10 219 0.0 1.6 0.00 0.00 0.00 78 1013.9
20260507064520 9 197 0.0 0.0 0.00 0.00 0.00 76 1013.7
20260507063018 8 202 0.0 0.0 0.00 0.00 0.00 76 1013.6
20260507061512 8 212 0.0 0.0 0.00 0.00 0.00 76 1013.5
20260507060009 8 285 0.0 1.6 0.00 0.00 0.00 76 1013.4
20260507054510 8 220 0.0 0.0 0.00 0.00 0.00 76 1013.2
20260507053006 8 202 0.0 0.0 0.00 0.00 0.00 75 1013.0
20260507051503 8 230 0.0 0.0 0.00 0.00 0.00 75 1012.8
20260507050100 -17 0.0 0.0 0.00 0.00 0.00 1012.7
20260507044600 -17 0.0 0.0 0.00 0.00 0.00 1012.6
20260507043050 -17 0.0 0.0 0.00 0.00 0.00 1012.4
20260507041545 -17 0.0 0.0 0.00 0.00 0.00 1012.3
20260507040048 -17 0.0 0.0 0.00 0.00 0.00 1012.2
20260507034540 -17 0.0 0.0 0.00 0.00 0.00 1012.1
20260507033035 -17 0.0 0.0 0.00 0.00 0.00 1012.1
20260507031527 -17 0.0 0.0 0.00 0.00 0.00 1011.9
20260507030023 -17 0.0 0.0 0.00 0.00 0.00 1011.8
20260507024518 -17 0.0 0.0 0.00 0.00 0.00 1011.8
20260507023013 -17 0.0 0.0 0.00 0.00 0.00 1011.8
20260507021514 -17 0.0 0.0 0.00 0.00 0.00 1011.7
20260507020005 -17 0.0 0.0 0.00 0.00 0.00 1011.5
20260507014501 -17 0.0 0.0 0.00 0.00 0.00 1011.5
20260507013056 -17 0.0 0.0 0.00 0.00 0.00 1011.4
20260507011601 -17 0.0 0.0 0.00 0.00 0.00 1011.3
20260507010047 -17 0.0 0.0 0.00 0.00 0.00 1011.3
20260507004543 -17 0.0 0.0 0.00 0.00 0.00 1011.1
20260507003038 -17 0.0 0.0 0.00 0.00 0.00 1011.1
20260507001547 -17 0.0 0.0 0.00 0.00 0.00 1010.9
20260507000030 -17 0.0 0.0 0.00 0.00 0.00 1010.8
20260506234531 -17 0.0 0.0 0.00 0.00 0.00 1010.8
20260506233021 -17 0.0 0.0 0.00 0.00 0.00 1010.9
20260506231516 -17 0.0 0.0 0.00 0.00 0.00 1010.7
20260506230011 -17 0.0 0.0 0.00 0.00 0.00 1010.8
20260506224512 -17 0.0 0.0 0.00 0.00 0.00 1010.6
20260506223003 -17 0.0 0.0 0.00 0.00 0.00 1010.5
20260506221558 -17 0.0 0.0 0.00 0.00 0.00 1010.4
20260506220106 -17 0.0 0.0 0.00 0.00 0.00 1010.3
20260506214550 -17 0.0 0.0 0.00 0.00 0.00 1010.3
20260506213046 -17 0.0 0.0 0.00 0.00 0.00 1010.0
20260506211541 -17 0.0 0.0 0.00 0.00 0.00 1010.0
20260506210037 -17 0.0 0.0 0.00 0.00 0.00 1009.9
20260506204535 -17 0.0 0.0 0.00 0.00 0.00 1009.8
20260506203034 -17 0.0 0.0 0.00 0.00 0.00 1009.7
20260506201524 -17 0.0 0.0 0.00 0.00 0.00 1009.7
20260506200024 -17 0.0 0.0 0.00 0.00 0.00 1009.6
20260506194515 -17 0.0 0.0 0.00 0.00 0.00 1009.4
20260506193010 -17 0.0 0.0 0.00 0.00 0.00 1009.4
20260506191506 -17 0.0 0.0 0.00 0.00 0.00 1009.2
20260506190002 -17 0.0 0.0 0.00 0.00 0.00 1009.0
20260506184602 -17 0.0 0.0 0.00 0.00 0.00 1008.8
20260506183058 -17 0.0 0.0 0.00 0.00 0.00 1008.6
20260506181550 -17 0.0 0.0 0.00 0.00 0.00 1008.5